Tulsa, OK

11:31 AM CST on February 07, 2016 (GMT -0600)
Tulsa International

Weather History for KTUL - January, 2014

Change the Weather History Date:

Thursday, January 23, 2014

  Actual Average Record
Temperature  
Mean Temperature 20 °F 38 °F  
Max Temperature 32 °F 49 °F 78 °F (1909)
Min Temperature 7 °F 28 °F -8 °F (1930)
Degree Days  
Heating Degree Days 45 27  
Month to date heating degree days 665 636  
Since 1 July heating degree days 2279 2064  
Moisture  
Dew Point -4 °F    
Average Humidity 43    
Maximum Humidity 58    
Minimum Humidity 28    
Precipitation  
Precipitation 0.00 in 0.06 in 1.42 in (1953)
Month to date precipitation 0.13 1.21  
Year to date precipitation 0.13 1.21  
Sea Level Pressure  
Sea Level Pressure 30.74 in    
Wind  
Wind Speed 13 mph (North)    
Max Wind Speed 25 mph    
Max Gust Speed 33 mph    
Visibility 10 miles    
Events      
T = Trace of Precipitation, MM = Missing Value Source: NWS Daily Summary

Daily Weather History Graph

Daily Weather History Graph

Search for Another Location

Airport or City:

Trip Planner

Search our weather history database for the weather conditions in past years. The results will help you decide how hot, cold, wet, or windy it might be!

Date:

Astronomy

Jan. 23, 2014 Rise Set
Actual Time 7:30 AM CST 5:40 PM CST
Civil Twilight 7:03 AM CST 6:08 PM CST
Nautical Twilight 6:31 AM CST 6:39 PM CST
Astronomical Twilight 6:01 AM CST 7:10 PM CST
Moon 12:00 AM CST (1/23) 11:20 AM CST (1/23)
Length of Visible Light 11h 05m
Length of Day
10h 10m
Waning Gibbous, 55% of the Moon is Illuminated
Jan 23
Waning Gibbous
Jan 23
Last Quarter
Jan 30
New
Feb 6
First Quarter
Feb 14
Full

Hourly Weather History & Observations

Time (CST) Temp. Windchill Dew Point Humidity Pressure Visibility Wind Dir Wind Speed Gust Speed Precip Events Conditions
12:53 AM 28.0 °F 13.9 °F 10.9 °F 49% 30.39 in 10.0 mi North 23.0 mph 29.9 mph N/A   Overcast
1:53 AM 26.1 °F 13.6 °F 10.0 °F 51% 30.42 in 10.0 mi North 16.1 mph 25.3 mph N/A   Overcast
2:53 AM 23.0 °F 7.6 °F 8.1 °F 53% 30.49 in 10.0 mi North 21.9 mph 29.9 mph N/A   Overcast
3:53 AM 19.0 °F 2.4 °F -6.0 °F 33% 30.54 in 10.0 mi North 21.9 mph 28.8 mph N/A   Overcast
4:53 AM 17.1 °F 1.0 °F -6.0 °F 36% 30.58 in 10.0 mi North 18.4 mph 29.9 mph N/A   Overcast
5:53 AM 16.0 °F -1.3 °F -8.0 °F 34% 30.61 in 10.0 mi NNE 20.7 mph 27.6 mph N/A   Overcast
6:53 AM 14.0 °F -0.2 °F -6.0 °F 41% 30.67 in 10.0 mi North 12.7 mph 23.0 mph N/A   Overcast
7:53 AM 12.0 °F -3.4 °F -8.0 °F 41% 30.71 in 10.0 mi North 13.8 mph 27.6 mph N/A   Mostly Cloudy
8:53 AM 12.9 °F -4.4 °F -7.1 °F 41% 30.75 in 10.0 mi NNE 18.4 mph 25.3 mph N/A   Overcast
9:53 AM 14.0 °F -1.4 °F -8.0 °F 37% 30.80 in 10.0 mi North 15.0 mph 25.3 mph N/A   Overcast
10:53 AM 15.1 °F -1.1 °F -9.0 °F 34% 30.84 in 10.0 mi North 17.3 mph - N/A   Overcast
11:53 AM 16.0 °F 3.6 °F -7.1 °F 36% 30.84 in 10.0 mi NNE 10.4 mph 18.4 mph N/A   Overcast
12:53 PM 17.1 °F 2.5 °F -7.1 °F 34% 30.82 in 10.0 mi North 15.0 mph 23.0 mph N/A   Overcast
1:53 PM 18.0 °F 5.4 °F -8.0 °F 31% 30.81 in 10.0 mi North 11.5 mph - N/A   Overcast
2:53 PM 21.0 °F 8.1 °F -8.0 °F 28% 30.81 in 10.0 mi NNE 13.8 mph - N/A   Overcast
3:53 PM 19.0 °F 5.6 °F -8.0 °F 30% 30.82 in 10.0 mi North 13.8 mph - N/A   Overcast
4:53 PM 19.0 °F 6.1 °F -5.1 °F 34% 30.83 in 10.0 mi North 12.7 mph - N/A   Mostly Cloudy
5:53 PM 14.0 °F 2.9 °F -5.1 °F 43% 30.84 in 10.0 mi NNW 8.1 mph - N/A   Mostly Cloudy
6:53 PM 10.9 °F 0.2 °F -4.0 °F 51% 30.85 in 10.0 mi North 6.9 mph - N/A   Mostly Cloudy
7:53 PM 12.9 °F 6.9 °F -5.1 °F 45% 30.86 in 10.0 mi NNW 3.5 mph - N/A   Scattered Clouds
8:53 PM 10.9 °F 2.9 °F -4.0 °F 51% 30.85 in 10.0 mi North 4.6 mph - N/A   Clear
9:53 PM 10.9 °F 4.7 °F -2.9 °F 54% 30.85 in 10.0 mi NW 3.5 mph - N/A   Clear
10:53 PM 10.0 °F 3.6 °F -2.9 °F 56% 30.85 in 10.0 mi WNW 3.5 mph - N/A   Clear
11:53 PM 10.0 °F 3.6 °F -2.0 °F 58% 30.84 in 10.0 mi NNW 3.5 mph - N/A   Clear